Crane Lake, MN

7:56 PM CST on December 04, 2016 (GMT -0600)
Crane Lake

Weather History for KCDD - March, 2013

Change the Weather History Date:

Tuesday, March 19, 2013

  Actual Average Record
Temperature  
Mean Temperature 16 °F -  
Max Temperature 23 °F 33 °F 75 °F (2012)
Min Temperature 8 °F 11 °F -5 °F (2007)
Degree Days  
Heating Degree Days 50    
Moisture  
Dew Point 8 °F    
Average Humidity 77    
Maximum Humidity 93    
Minimum Humidity 50    
Precipitation  
Precipitation 0.00 in - - ()
Sea Level Pressure  
Sea Level Pressure 29.84 in    
Wind  
Wind Speed 9 mph (NW)    
Max Wind Speed 16 mph    
Max Gust Speed 30 mph    
Visibility 6 miles    
Events Snow    
Averages and records for this station are not official NWS values.
T = Trace of Precipitation, MM = Missing Value Source: NWS Daily Summary

Daily Weather History Graph

Daily Weather History Graph

Search for Another Location

Airport or City:

Trip Planner

Search our weather history database for the weather conditions in past years. The results will help you decide how hot, cold, wet, or windy it might be!

Date:

Astronomy

Mar. 19, 2013 Rise Set
Actual Time 7:14 AM CDT 7:21 PM CDT
Civil Twilight 6:43 AM CDT 7:52 PM CDT
Nautical Twilight 6:06 AM CDT 8:29 PM CDT
Astronomical Twilight 5:29 AM CDT 9:07 PM CDT
Moon 11:39 AM CDT (3/19) 2:34 AM CDT (3/19)
Length of Visible Light 13h 09m
Length of Day
12h 07m
Waxing Crescent, 50% of the Moon is Illuminated
Mar 19
Waxing Crescent
Mar 19
First Quarter
Mar 27
Full
Apr 2
Last Quarter
Apr 10
New

Hourly Weather History & Observations

Time (CDT) Temp. Windchill Dew Point Humidity Pressure Visibility Wind Dir Wind Speed Gust Speed Precip Events Conditions
12:08 AM 17.6 °F 6.4 °F 15.8 °F 93% 29.59 in 0.8 mi NW 9.2 mph 21.9 mph N/A Snow Light Snow
12:28 AM 17.6 °F 6.4 °F 15.8 °F 93% 29.59 in 1.5 mi NW 9.2 mph 18.4 mph N/A Snow Light Snow
12:48 AM 17.6 °F 5.7 °F 15.8 °F 93% 29.60 in 2.0 mi NW 10.4 mph 20.7 mph N/A Snow Light Snow
1:08 AM 17.6 °F - 15.8 °F 93% 29.61 in 1.0 mi Calm Calm - N/A Snow Light Snow
1:28 AM 15.8 °F 7.2 °F 14.0 °F 93% 29.61 in 0.8 mi WNW 5.8 mph - N/A Snow Light Snow
1:48 AM 15.8 °F 2.7 °F 12.2 °F 86% 29.62 in 1.0 mi NW 11.5 mph 17.3 mph N/A Snow Light Snow
2:08 AM 14.0 °F 1.2 °F 12.2 °F 93% 29.63 in 1.5 mi NW 10.4 mph 21.9 mph N/A Snow Light Snow
2:28 AM 14.0 °F 1.2 °F 10.4 °F 86% 29.64 in 1.2 mi NW 10.4 mph 20.7 mph N/A Snow Light Snow
2:48 AM 12.2 °F -0.2 °F 10.4 °F 92% 29.65 in 1.0 mi NW 9.2 mph 21.9 mph N/A Snow Light Snow
3:08 AM 12.2 °F 1.7 °F 10.4 °F 92% 29.65 in 1.2 mi NW 6.9 mph - N/A Snow Light Snow
3:28 AM 12.2 °F 1.7 °F 10.4 °F 92% 29.66 in 1.0 mi NW 6.9 mph 18.4 mph N/A Snow Light Snow
3:48 AM 12.2 °F 0.7 °F 10.4 °F 92% 29.66 in 1.0 mi NW 8.1 mph - N/A Snow Light Snow
4:08 AM 12.2 °F 2.9 °F 10.4 °F 92% 29.67 in 1.2 mi WNW 5.8 mph 20.7 mph N/A Snow Light Snow
4:28 AM 12.2 °F 2.9 °F 8.6 °F 85% 29.69 in 1.8 mi WNW 5.8 mph 17.3 mph N/A Snow Light Snow
4:48 AM 10.4 °F -2.4 °F 8.6 °F 92% 29.70 in 1.2 mi NW 9.2 mph - N/A Snow Light Snow
5:08 AM 10.4 °F -0.4 °F 8.6 °F 92% 29.71 in 2.0 mi NW 6.9 mph - N/A Snow Light Snow
5:28 AM 10.4 °F -1.5 °F 8.6 °F 92% 29.71 in 1.5 mi WNW 8.1 mph - N/A Snow Light Snow
5:48 AM 10.4 °F -2.4 °F 8.6 °F 92% 29.72 in 1.0 mi WNW 9.2 mph - N/A Snow Light Snow
6:08 AM 10.4 °F -0.4 °F 6.8 °F 85% 29.73 in 4.0 mi NW 6.9 mph - N/A Snow Light Snow
6:28 AM 10.4 °F -2.4 °F 6.8 °F 85% 29.74 in 7.0 mi NW 9.2 mph - N/A Snow Light Snow
6:48 AM 8.6 °F -3.7 °F 6.8 °F 92% 29.75 in 3.0 mi NW 8.1 mph 16.1 mph N/A Snow Light Snow
7:08 AM 8.6 °F -1.3 °F 6.8 °F 92% 29.76 in 3.0 mi NW 5.8 mph - N/A Snow Light Snow
7:28 AM 8.6 °F -3.7 °F 6.8 °F 92% 29.77 in 2.0 mi NW 8.1 mph - N/A Snow Light Snow
7:48 AM 8.6 °F -1.3 °F 6.8 °F 92% 29.78 in 2.5 mi West 5.8 mph - N/A Snow Light Snow
8:08 AM 8.6 °F -1.3 °F 6.8 °F 92% 29.79 in 1.8 mi WNW 5.8 mph - N/A Snow Light Snow
8:28 AM 8.6 °F -2.6 °F 6.8 °F 92% 29.80 in 2.5 mi NW 6.9 mph 17.3 mph N/A Snow Light Snow
8:48 AM 8.6 °F -4.7 °F 6.8 °F 92% 29.80 in 5.0 mi NW 9.2 mph 18.4 mph N/A Snow Light Snow
9:08 AM 10.4 °F -0.4 °F 6.8 °F 85% 29.81 in 10.0 mi NW 6.9 mph 17.3 mph N/A   Mostly Cloudy
9:28 AM 10.4 °F -2.4 °F 6.8 °F 85% 29.81 in 10.0 mi NW 9.2 mph 17.3 mph N/A Snow Light Snow
9:48 AM 12.2 °F 1.7 °F 8.6 °F 85% 29.82 in 10.0 mi NW 6.9 mph - N/A Snow Light Snow
10:08 AM 12.2 °F 0.7 °F 8.6 °F 85% 29.83 in 10.0 mi NW 8.1 mph 17.3 mph N/A   Overcast
10:28 AM 14.0 °F 1.2 °F 8.6 °F 79% 29.83 in 10.0 mi NW 10.4 mph 18.4 mph N/A   Overcast
10:48 AM 12.2 °F -1.0 °F 8.6 °F 85% 29.84 in 7.0 mi West 10.4 mph 20.7 mph N/A   Overcast
11:08 AM 15.8 °F 4.2 °F 8.6 °F 73% 29.85 in 7.0 mi West 9.2 mph 24.2 mph N/A   Mostly Cloudy
11:28 AM 15.8 °F 7.2 °F 8.6 °F 73% 29.85 in 7.0 mi West 5.8 mph 23.0 mph N/A Snow Light Snow
11:48 AM 17.6 °F 2.7 °F 8.6 °F 68% 29.85 in 7.0 mi NW 16.1 mph 25.3 mph N/A Snow Light Snow
12:09 PM 17.6 °F 2.7 °F 8.6 °F 68% 29.86 in 5.0 mi NW 16.1 mph 21.9 mph N/A Snow Light Snow
12:28 PM 19.4 °F 7.2 °F 8.6 °F 63% 29.86 in 10.0 mi WNW 11.5 mph 19.6 mph N/A   Scattered Clouds
12:48 PM 19.4 °F 7.9 °F 8.6 °F 63% 29.86 in 4.0 mi WNW 10.4 mph 20.7 mph N/A Snow Light Snow
1:08 PM 19.4 °F 6.0 °F 8.6 °F 63% 29.87 in 7.0 mi NW 13.8 mph 23.0 mph N/A   Scattered Clouds
1:28 PM 19.4 °F 7.2 °F 6.8 °F 58% 29.87 in 4.0 mi NW 11.5 mph 24.2 mph N/A   Haze
1:48 PM 19.4 °F 5.0 °F 8.6 °F 63% 29.88 in 10.0 mi NW 16.1 mph 26.5 mph N/A Snow Light Snow
2:08 PM 21.2 °F 9.5 °F 8.6 °F 58% 29.88 in 7.0 mi West 11.5 mph 23.0 mph N/A   Scattered Clouds
2:28 PM 21.2 °F 10.1 °F 8.6 °F 58% 29.89 in 4.0 mi WNW 10.4 mph 18.4 mph N/A   Haze
2:48 PM 23.0 °F 9.6 °F 10.4 °F 59% 29.89 in 5.0 mi NW 16.1 mph 29.9 mph N/A   Haze
3:08 PM 23.0 °F 13.1 °F 8.6 °F 54% 29.90 in 7.0 mi WNW 9.2 mph 19.6 mph N/A   Overcast
3:28 PM 21.2 °F 10.9 °F 6.8 °F 54% 29.90 in 7.0 mi West 9.2 mph 25.3 mph N/A   Overcast
3:48 PM 23.0 °F 13.1 °F 10.4 °F 59% 29.91 in 10.0 mi WNW 9.2 mph 19.6 mph N/A   Overcast
4:08 PM 23.0 °F 11.7 °F 6.8 °F 50% 29.92 in 7.0 mi NW 11.5 mph 26.5 mph N/A   Mostly Cloudy
4:28 PM 21.2 °F 7.8 °F 6.8 °F 54% 29.93 in 10.0 mi NW 15.0 mph 26.5 mph N/A   Overcast
4:48 PM 19.4 °F 10.4 °F 6.8 °F 58% 29.94 in 10.0 mi NW 6.9 mph 18.4 mph N/A   Overcast
5:08 PM 19.4 °F 6.6 °F 5.0 °F 54% 29.95 in 7.0 mi NW 12.7 mph 26.5 mph N/A   Mostly Cloudy
5:28 PM 17.6 °F 5.0 °F 6.8 °F 63% 29.95 in 10.0 mi NW 11.5 mph 20.7 mph N/A   Overcast
5:48 PM 17.6 °F 5.0 °F 6.8 °F 63% 29.96 in 10.0 mi NNW 11.5 mph 24.2 mph N/A   Overcast
6:08 PM 15.8 °F 0.9 °F 6.8 °F 68% 29.97 in 10.0 mi NW 15.0 mph 20.7 mph N/A   Overcast
6:28 PM 15.8 °F 4.2 °F 6.8 °F 68% 29.98 in 7.0 mi NW 9.2 mph 17.3 mph N/A   Overcast
6:48 PM 15.8 °F 6.1 °F 6.8 °F 68% 29.98 in 10.0 mi NW 6.9 mph 19.6 mph N/A   Overcast
7:08 PM 15.8 °F 6.1 °F 6.8 °F 68% 29.98 in 10.0 mi WNW 6.9 mph 17.3 mph N/A   Overcast
7:28 PM 14.0 °F 3.9 °F 6.8 °F 73% 29.99 in 10.0 mi WNW 6.9 mph - N/A   Overcast
7:48 PM 14.0 °F 2.9 °F 6.8 °F 73% 29.99 in 10.0 mi WNW 8.1 mph 18.4 mph N/A   Overcast
8:08 PM 14.0 °F 6.5 °F 6.8 °F 73% 30.00 in 10.0 mi WNW 4.6 mph 19.6 mph N/A   Overcast
8:28 PM 12.2 °F 0.7 °F 5.0 °F 73% 30.00 in 7.0 mi WNW 8.1 mph 20.7 mph N/A   Mostly Cloudy
8:48 PM 12.2 °F 1.7 °F 5.0 °F 73% 30.00 in 10.0 mi West 6.9 mph 23.0 mph N/A   Overcast
9:08 PM 12.2 °F 4.3 °F 6.8 °F 79% 30.01 in 7.0 mi NW 4.6 mph - N/A   Overcast
9:28 PM 12.2 °F 2.9 °F 5.0 °F 73% 30.01 in 5.0 mi NW 5.8 mph 16.1 mph N/A   Haze
9:48 PM 10.4 °F -1.5 °F 3.2 °F 73% 30.01 in 3.0 mi West 8.1 mph - N/A Snow Light Snow
10:08 PM 10.4 °F -1.5 °F 3.2 °F 73% 30.01 in 3.0 mi NW 8.1 mph 19.6 mph N/A Snow Light Snow
10:28 PM 10.4 °F -1.5 °F 3.2 °F 73% 30.01 in 5.0 mi NW 8.1 mph - N/A   Haze
10:48 PM 10.4 °F -0.4 °F 3.2 °F 73% 30.01 in 7.0 mi WNW 6.9 mph - N/A   Overcast
11:08 PM 8.6 °F -4.7 °F 3.2 °F 79% 30.01 in 10.0 mi WNW 9.2 mph - N/A   Mostly Cloudy
11:28 PM 8.6 °F -2.6 °F 1.4 °F 73% 30.01 in 10.0 mi West 6.9 mph - N/A   Mostly Cloudy
11:48 PM 8.6 °F 0.1 °F 1.4 °F 73% 30.01 in 10.0 mi WNW 4.6 mph - N/A   Overcast